BEIDOU-3 G1

Last updated on Wed Sep 09 2026 00:03:02 GMT+0000 (Coordinated Universal Time)

1 43683U 18085A 26251.65932389 -.00000129 00000+0 00000+0 0 9998 2 43683 2.5991 95.0019 0005987 21.5783 268.5625 1.00271588 28894
UTC large
Height (km)
Speed (km/s)
/
Latitude / Longitude
Inclination (degrees)
Orbital Period (minutes)
Azimuth
Elevation
Range (km)
Doppler Factor

Next 0 passes for location: London (51.5072 / 0.1276)

No passes found over London.
BEIDOU-3 G1